Location: Binningen
(47.7924°N, 8.7261°E)
Time: 20:49:37
(UTC+00:00)

SL-27 R/B - Pass Details

Date: 17 May 2021
Orbit: 417 x 468 km, 74.7° (Epoch: 21 June)

Event Time Altitude Azimuth Distance (km) Brightness Sun altitude
Rises 22:10:42 0° 338° (NNW) 2,391 7.7 -20.8°
Reaches altitude 10° 22:12:45 10° 338° (NNW) 1,526 6.3 -20.9°
Enters shadow 22:15:52 76° 329° (NNW) 449 2.4 -21.1°
